Flag for U.S.A. Weather past 2 weeks in Germantown, Maryland, U.S.A.

Now
37 °F

Clear.


Feels Like: 37 °F
Forecast: 34 / 59 °F
Wind: No wind

Location: Frederick Municipal Airport

Current Time: Mar 31, 2015 at 4:31:28 AM

Latest Report: Mar 31, 2015 at 3:55 AM


Visibility: 10 mi

Pressure: 29.94 "Hg

Humidity: 56%

Dew point: 23 °F

Location of GermantownLocation

Historic Weather in Germantown — Graph

°F

Germantown temperature yesterday

Maximum temperature yesterday: 63 °F (at 4:13 PM)
Minimum temperature yesterday: 37 °F (at 3:10 AM)
Average temperature yesterday: 46 °F

Past Weeks' High & Low Weather Summary

 TemperatureHumidityPressure
High77 °F (Mar 26, 4:47 PM)100% (Mar 25, 8:50 AM)30.43 "Hg (Mar 25, 8:50 AM)
Low25 °F (Mar 25, 4:55 AM)8% (Mar 29, 3:49 PM)29.59 "Hg (Mar 26, 5:49 PM)
Average40 °F50%30.11 "Hg
* Reported Mar 16 3:10 AM — Mar 31 3:15 AM, Germantown, Weather by CustomWeather, © 2015

Note: Actual official high and low records may vary slightly from our data, if they occured in-between our weather recording intervals... More about our weather records

Advertising

Germantown weather history for previous 24 hours

 ConditionsComfort  
Time TempWeatherWind HumidityBarometerVisibility
3:15 AM
Tue, Mar 31
36 °FClear.No wind65%29.94 "Hg10 mi
2:55 AM36 °FClear.No wind60%29.94 "Hg10 mi
2:35 AM37 °FClear.No wind56%29.95 "Hg10 mi
2:15 AM46 °FClear.No wind34%29.95 "Hg10 mi
1:55 AM46 °FClear.3 mph34%29.95 "Hg10 mi
1:35 AM37 °FClear.No wind60%29.95 "Hg10 mi
1:15 AM41 °FClear.No wind49%29.96 "Hg10 mi
12:55 AM45 °FClear.3 mph39%29.96 "Hg10 mi
12:35 AM45 °FClear.6 mph37%29.96 "Hg10 mi
12:15 AM46 °FClear.3 mph34%29.96 "Hg10 mi
11:55 PM
Mon, Mar 30
45 °FClear.5 mph37%29.96 "Hg10 mi
11:15 PM45 °FClear.5 mph37%29.97 "Hg10 mi
10:50 PM43 °FClear.7 mph42%29.97 "Hg10 mi
10:10 PM46 °FClear.3 mph32%29.98 "Hg10 mi
9:50 PM48 °FClear.3 mph25%29.97 "Hg10 mi
9:30 PM50 °FClear.3 mph22%29.97 "Hg10 mi
9:10 PM52 °FClear.7 mph20%29.97 "Hg10 mi
8:50 PM52 °FClear.8 mph20%29.96 "Hg10 mi
8:30 PM54 °FSunny.13 mph18%29.95 "Hg10 mi
6:50 PM57 °FSunny.18 mph14%29.91 "Hg10 mi
5:50 PM59 °FScattered clouds.18 mph14%29.88 "Hg10 mi
4:55 PM61 °FScattered clouds.18 mph12%29.88 "Hg10 mi
4:13 PM63 °FScattered clouds.18 mph13%29.87 "Hg10 mi
2:45 PM61 °FScattered clouds.15 mph15%29.89 "Hg10 mi
1:49 PM61 °FScattered clouds.20 mph19%29.91 "Hg10 mi
12:45 PM55 °FOvercast.N/A31%29.91 "Hg10 mi
11:48 AM52 °FPartly sunny.5 mph30%29.92 "Hg10 mi
10:47 AM52 °FScattered clouds.8 mph24%29.93 "Hg10 mi
9:45 AM45 °FOvercast.5 mph31%29.93 "Hg10 mi
8:50 AM45 °FOvercast.7 mph34%29.93 "Hg10 mi
7:48 AM43 °FOvercast.7 mph36%29.93 "Hg10 mi
6:25 AM43 °FOvercast.7 mph36%29.93 "Hg10 mi
6:10 AM43 °FOvercast.8 mph34%29.95 "Hg10 mi
5:50 AM43 °FOvercast.6 mph34%29.96 "Hg10 mi
5:30 AM41 °FOvercast.6 mph33%29.95 "Hg10 mi
5:10 AM41 °FOvercast.6 mph39%29.96 "Hg10 mi
4:50 AM41 °FOvercast.6 mph42%29.97 "Hg10 mi
4:30 AM41 °FOvercast.7 mph49%29.98 "Hg10 mi
4:10 AM41 °FMostly cloudy.9 mph49%29.99 "Hg10 mi
Weather by CustomWeather, © 2015

See weather overviewHow to use our weather pages